Location: Unspecified
(17.6330°N, 0.0000°E)
Time: 00:27:47
(UTC+00:00)

S-56A Canister/Altair - Pass Details

Date: 28 June 2019
Orbit: 632 x 2500 km, 38.9° (Epoch: 21 July)

Event Time Altitude Azimuth Distance (km) Brightness Sun altitude
Rises 20:40:19 0° 306° (NW) 3,543 12.3 -25.7°
Reaches altitude 10° 20:43:11 10° 306° (NW) 2,392 11.1 -26.3°
Enters shadow 20:48:00 72° 298° (WNW) 720 7.4 -27.2°
Maximum altitude 20:48:30 87° 217° (SW) 679 - -27.3°
Drops below altitude 10° 20:52:54 10° 129° (SE) 2,000 - -28.1°
Sets 20:55:07 0° 129° (SE) 2,911 - -28.5°
